Weather Roundup
Issued by NWS

Home | Current Version | Previous Version | Text Only | Print | Product List | Glossary On
Versions: 1 2 3 4 5 6 7 8 9 10 11 12 13 14 15 16 17 18 19 20 21 22 23 24 25 26 27 28 29 30 31 32 33 34 35 36 37 38 39 40 41 42 43 44 45 46 47 48 49 50
000
NZUS93 KARX 231310
HRRWXR

CURRENT HOURLY OBSERVATIONS ACROSS
MUCH OF THE UPPER MISSISSIPPI VALLEY
NATIONAL WEATHER SERVICE LA CROSSE WI
800 AM CDT WED JUL 23 2014


...SOUTHEAST MINNESOTA...


CITY           SKY/WX    TMP DP  RH WIND       PRES   REMARKS
ROCHESTER      SUNNY     66  60  81 N5        30.26R
ROCHESTER/MAYO FAIR      64  57  78 CALM      30.25R
WINONA         SUNNY     70  64  83 N5        30.23R
AUSTIN         MOSUNNY   64  59  82 N3        30.24S
ALBERT LEA     SUNNY     64  61  88 NW3       30.26R
DODGE CENTER   MOSUNNY   64  61  88 N5        30.25S
PRESTON        SUNNY     64  63  99 N5        30.25R
OWATONNA       MOSUNNY   63  59  88 CALM      30.26R
FARIBAULT      MOSUNNY   68  57  68 NW3       30.26S
$$

...ELSEWHERE IN MINNESOTA...


CITY           SKY/WX    TMP DP  RH WIND       PRES   REMARKS
MINNEAPOLIS    MOSUNNY   69  56  62 N7        30.25S
INTNL FALLS    SUNNY     63  53  70 NE6       30.28R
DULUTH         MOSUNNY   64  56  75 N6        30.26R
RED WING       SUNNY     66  61  82 CALM      30.23S
REDWOOD FALLS  SUNNY     65  56  72 NE3       30.27R
MANKATO        SUNNY     64  55  72 NE7       30.26S
WORTHINGTON    SUNNY     63  55  77 N7        30.30R
FAIRMONT       SUNNY     63  54  72 N7        30.27R
$$

...SOUTHWEST WISCONSIN...


CITY           SKY/WX    TMP DP  RH WIND       PRES   REMARKS
LA CROSSE      SUNNY     69  59  70 N7        30.21R
PRAIRIE DU CHI SUNNY     67  58  72 NE6       30.20R
BOSCOBEL       SUNNY     68  59  73 VRB3      30.21R
LONE ROCK      SUNNY     70  60  70 NE6       30.20R
PLATTEVILLE    SUNNY     65  60  83 NE8       30.20R
FORT MC COY    SUNNY     63  58  84 CALM      30.23R
CAMP DOUGLAS   MOSUNNY   63  63 100 VRB5      30.23R
VIROQUA        FAIR      64  62  93 CALM      30.23R
WIS DELLS      SUNNY     64  57  79 NE3       30.21R
$$

...ELSEWHERE IN WISCONSIN...


CITY           SKY/WX    TMP DP  RH WIND       PRES   REMARKS
MILWAUKEE      MOSUNNY   63  54  72 NE15G22   30.15S
MADISON        SUNNY     66  57  72 NE10      30.19R
GREEN BAY      SUNNY     63  56  78 N10       30.21R
EAU CLAIRE     SUNNY     66  61  84 CALM      30.23R
BLACK RVR FLS  FAIR      63  61  94 NE3       30.23R
MEDFORD        SUNNY     59  58  96 CALM      30.24S
WAUSAU         SUNNY     63  56  78 NE5       30.22R
WIS RAPIDS     SUNNY     65  55  70 NE6       30.24R
MARSHFIELD     SUNNY     65  55  70 NE3       30.24R
RICE LAKE      SUNNY     62  57  83 CALM      30.25S
$$

...NORTHEAST IOWA...


CITY           SKY/WX    TMP DP  RH WIND       PRES   REMARKS
WATERLOO       MOSUNNY   68  61  78 NE7       30.20R
DUBUQUE        SUNNY     66  60  81 NE9       30.19R
DECORAH        SUNNY     66  61  82 N5        30.22R
MASON CITY     SUNNY     64  60  87 N5        30.25R
CHARLES CITY   SUNNY     66  61  82 NE6       30.23R
OELWEIN        SUNNY     66  61  82 NE8       30.22R
$$

...ELSEWHERE IN IOWA...


CITY           SKY/WX    TMP DP  RH WIND       PRES   REMARKS
DES MOINES     MOSUNNY   71  60  68 NE10      30.17S
IOWA CITY      SUNNY     70  63  78 NE14      30.16R
FORT DODGE     SUNNY     63  57  82 N5        30.24R
MARSHALLTOWN   SUNNY     67  62  84 N8        30.19R
CEDAR RAPIDS   SUNNY     69  60  73 NE13      30.16R
$$

...NORTHERN ILLINOIS...


CITY           SKY/WX    TMP DP  RH WIND       PRES   REMARKS
CHICAGO-OHARE  MOSUNNY   66  53  63 NE18      30.12R
DUPAGE         SUNNY     66  56  70 N15       30.13R
CHICAGO-MIDWAY MOSUNNY   68  59  73 N16       30.11R
MOLINE         SUNNY     71  62  73 NE8       30.12S
ROCKFORD       MOSUNNY   67  56  67 NE14      30.17S
STERLING       SUNNY     68  61  77 NE9       30.15R
PEORIA         PTSUNNY   72  61  68 NE15G25   30.11R
$$

NOTE: "FAIR" INDICATES FEW OR NO CLOUDS BELOW 12,000 FEET WITH NO
SIGNIFICANT WEATHER AND/OR OBSTRUCTIONS TO VISIBILITY. WIND
SPEEDS ARE IN MILES-PER-HOUR.



USA.gov is the U.S. government's official web portal to all federal, state and local government web resources and services.